Location: Arbon
(43.0005°N, 0.7472°E)
Time: 09:41:41
(UTC+00:00)

Tiangong - Pass Details

Date: 05 October 2021
Orbit: 382 x 385 km, 41.5° (Epoch: 17 October)

Event Time Altitude Azimuth Distance (km) Brightness Sun altitude
Exits shadow 04:39:13 35° 232° (SW) 636 1.7 -15.4°
Maximum altitude 04:39:55 42° 196° (SSW) 558 1.6 -15.2°
Drops below altitude 10° 04:42:55 10° 123° (ESE) 1,393 4.6 -14.7°
Sets 04:45:02 0° 116° (ESE) 2,243 6.0 -14.3°
